Kalispell, MT

10:55 PM MST on December 12, 2017 (GMT -0700)
Glacier Park International

Weather History for KGPI - June, 2014

Change the Weather History Date:

Sunday, June 22, 2014

  Actual Average Record
Temperature  
Mean Temperature 64 °F 59 °F  
Max Temperature 82 °F 74 °F 96 °F (1955)
Min Temperature 45 °F 45 °F 33 °F (1983)
Degree Days  
Heating Degree Days 1 6  
Month to date heating degree days 213 172  
Since 1 June heating degree days 213 172  
Since 1 July heating degree days 8158 7995  
Cooling Degree Days 0 1  
Month to date cooling degree days 0 3  
Year to date cooling degree days 0 6  
Since 1 June cooling degree days 0 3  
Growing Degree Days 12 (Base 50)    
Moisture  
Dew Point 42 °F    
Average Humidity 56    
Maximum Humidity 92    
Minimum Humidity 20    
Precipitation  
Precipitation 0.00 in 0.09 in 0.63 in (2009)
Month to date precipitation 4.69 1.94  
Year to date precipitation 11.94 8.55  
Snow  
Snow 0.00 in - - ()
Month to date snowfall 0.0  
Year to date snowfall 38.2  
Since 1 July snowfall 71.7  
Snow Depth 0.00 in    
Sea Level Pressure  
Sea Level Pressure 29.99 in    
Wind  
Wind Speed 5 mph (North)    
Max Wind Speed 16 mph    
Max Gust Speed 20 mph    
Visibility 10 miles    
Events      
T = Trace of Precipitation, MM = Missing Value Source: NWS Daily Summary

Daily Weather History Graph

Daily Weather History Graph

Search for Another Location

Airport or City:

Trip Planner

Search our weather history database for the weather conditions in past years. The results will help you decide how hot, cold, wet, or windy it might be!

Date:

Astronomy

Jun. 22, 2014 Rise Set
Actual Time 5:36 AM MDT 9:41 PM MDT
Civil Twilight 4:54 AM MDT 10:23 PM MDT
Nautical Twilight 3:55 AM MDT 11:22 PM MDT
Astronomical Twilight 2:06 AM MDT 1:11 AM MDT
Moon 2:44 AM MDT (6/22) 5:11 PM MDT (6/22)
Length of Visible Light 17h 29m
Length of Day
16h 05m
Waning Crescent, 20% of the Moon is Illuminated
Jun 22
Waning Crescent
Jun 27
New
Jul 5
First Quarter
Jul 12
Full
Jul 18
Last Quarter

Hourly Weather History & Observations

Time (MDT) Temp. Windchill Dew Point Humidity Pressure Visibility Wind Dir Wind Speed Gust Speed Precip Events Conditions
12:55 AM 50.0 °F - 45.0 °F 83% 29.97 in 10.0 mi WNW 4.6 mph - N/A   Clear
1:55 AM 48.0 °F - 44.1 °F 86% 29.98 in 10.0 mi SSW 3.5 mph - N/A   Clear
2:55 AM 46.9 °F - 43.0 °F 86% 29.99 in 10.0 mi WNW 3.5 mph - N/A   Clear
3:55 AM 46.9 °F - 43.0 °F 86% 29.99 in 10.0 mi Calm Calm - N/A   Clear
4:55 AM 45.0 °F 43.5 °F 43.0 °F 93% 30.00 in 10.0 mi SSW 3.5 mph - N/A   Clear
5:55 AM 46.9 °F - 43.0 °F 86% 30.01 in 10.0 mi Calm Calm - N/A   Clear
6:55 AM 51.1 °F - 44.1 °F 77% 30.02 in 10.0 mi NNW 3.5 mph - N/A   Clear
7:55 AM 55.9 °F - 46.0 °F 69% 30.02 in 10.0 mi North 6.9 mph - N/A   Clear
8:55 AM 62.1 °F - 46.9 °F 58% 30.02 in 10.0 mi NNE 9.2 mph - N/A   Clear
9:55 AM 64.9 °F - 46.0 °F 50% 30.03 in 10.0 mi NNE 13.8 mph - N/A   Clear
10:55 AM 69.1 °F - 46.9 °F 45% 30.03 in 10.0 mi NNE 12.7 mph - N/A   Clear
11:55 AM 72.0 °F - 43.0 °F 35% 30.02 in 10.0 mi Calm Calm - N/A   Clear
12:55 PM 75.0 °F - 44.1 °F 33% 30.01 in 10.0 mi Variable 3.5 mph - N/A   Clear
1:55 PM 75.9 °F - 41.0 °F 29% 30.00 in 10.0 mi WSW 4.6 mph - N/A   Clear
2:55 PM 77.0 °F - 33.1 °F 20% 29.99 in 10.0 mi Variable 3.5 mph - N/A   Clear
3:55 PM 79.0 °F - 36.0 °F 21% 29.97 in 10.0 mi Variable 4.6 mph - N/A   Clear
4:55 PM 79.0 °F - 36.0 °F 21% 29.96 in 10.0 mi Variable 3.5 mph - N/A   Clear
5:55 PM 79.0 °F - 37.0 °F 22% 29.94 in 10.0 mi Calm Calm - N/A   Clear
6:55 PM 80.1 °F - 37.9 °F 22% 29.93 in 10.0 mi Calm Calm - N/A   Clear
7:55 PM 78.1 °F - 41.0 °F 27% 29.94 in 10.0 mi NE 11.5 mph - N/A   Clear
8:55 PM 70.0 °F - 44.1 °F 39% 29.94 in 10.0 mi NNE 12.7 mph - N/A   Clear
9:55 PM 66.0 °F - 44.1 °F 45% 29.97 in 10.0 mi NE 8.1 mph - N/A   Clear
10:55 PM 64.0 °F - 45.0 °F 50% 30.00 in 10.0 mi Calm Calm - N/A   Clear
11:55 PM 63.0 °F - 46.0 °F 54% 30.01 in 10.0 mi ENE 4.6 mph - N/A   Clear